カタログに戻る

STARLINK-37682

運用中通信VLEO
NORAD 69209·PAYLOAD·🇺🇸 United States

打ち上げ May 25, 2026 から Cape Canaveral Space Force Station

Loading…

次のパス (今後24時間)

TLE

最新Source: CelesTrak SupGP

元期: Sep 15, 2026, 04:06 UTC

1 69209C 26114AD  26258.17131944  .00036064  00000+0  10656-2 0  2589
2 69209  53.1560 138.3309 0001200  86.7724 216.8917 15.34370931    13

AllMySatでSTARLINK-37682をリアルタイム追跡

Download on the App Store